Location: Boleita
(10.4833°N, 66.8167°W)
Time: 02:05:03
(UTC+00:00)

Iridium 4 Rocket - Pass Details

Date: 08 November 2025
Orbit: 579 x 888 km, 86.9° (Epoch: 08 December)

Event Time Altitude Azimuth Distance (km) Brightness Sun altitude
Rises 09:33:38 0° 5° (N) 2,795 6.3 -11.8°
Reaches altitude 10° 09:35:50 10° 8° (N) 1,887 5.5 -11.3°
Maximum altitude 09:39:53 64° 90° (E) 641 3.4 -10.4°
Drops below altitude 10° 09:44:01 10° 172° (S) 1,916 5.9 -9.4°
Sets 09:46:15 0° 175° (S) 2,843 6.7 -8.9°
